Regional Weather Roundup
Issued by NWS

Home | Current Version | Previous Version | Graphics & Text | Print | Product List | Glossary On
Versions: 1 2 3 4 5 6 7 8 9 10 11 12 13 14 15 16 17 18 19 20 21 22 23 24 25 26 27 28 29 30 31 32 33 34 35 36 37 38 39 40 41 42 43 44 45 46 47 48 49 50
000
ASUS43 KFSD 311510
RWRSD

WEATHER ROUNDUP FOR SOUTH DAKOTA
NATIONAL WEATHER SERVICE SIOUX FALLS SD
1000 AM CDT MON AUG 31 2015

NOTE: "FAIR" INDICATES FEW OR NO CLOUDS BELOW 12,000 FEET WITH NO
SIGNIFICANT WEATHER AND/OR OBSTRUCTIONS TO VISIBILITY.


SDZ001>005-009-010-012>017-311600-
NORTHWEST AND NORTH CENTRAL SOUTH DAKOTA

CITY           SKY/WX    TMP DP  RH WIND       PRES   REMARKS
BUFFALO          N/A     64  50  60 NW7       29.92R
FAITH            N/A     65  54  67 N20G25    29.93R
MOBRIDGE       CLOUDY    77  58  51 N21G33    29.78R
$$

SDZ012>016-024>037-041>051-057-063-072>074-311600-
SOUTHWEST AND SOUTH CENTRAL SOUTH DAKOTA

CITY           SKY/WX    TMP DP  RH WIND       PRES   REMARKS
RAPID CTY ARPT CLOUDY    64  55  72 N25G35    29.98R
PIERRE         CLOUDY    73  59  61 NW21G28   29.80R
CUSTER         CLOUDY    69  47  45 CALM      30.07R
ELLSWORTH AFB  CLOUDY    64  55  71 NW25      29.98R
PHILIP         CLOUDY    68  56  65 NW15G21   29.89R
PINE RIDGE     CLOUDY    78  52  40 W5        29.95R
WINNER         FAIR      80  53  39 SW15      29.82R
$$

SDZ004>011-016>023-039-040-311600-
NORTHEAST SOUTH DAKOTA

CITY           SKY/WX    TMP DP  RH WIND       PRES   REMARKS
ABERDEEN       MOSUNNY   74  64  71 S18       29.75R
WATERTOWN      SUNNY     72  64  76 S17G26    29.81S
BROOKINGS      MOSUNNY   70  64  83 S17       29.89S
SISSETON         N/A     78  61  55 SW21G31   29.70F
$$

SDZ017-020-022-023-036>040-048>070-311600-
SOUTHEAST SOUTH DAKOTA

CITY           SKY/WX    TMP DP  RH WIND       PRES   REMARKS
SIOUX FALLS    MOSUNNY   72  67  84 S13       29.89S
HURON          MOSUNNY   73  64  73 S16G25    29.78R
CHAMBERLAIN    SUNNY     74  60  61 SW9       29.81R
MITCHELL       SUNNY     73  65  75 S12G21    29.83R
YANKTON        SUNNY     72  66  83 S9        29.88S
$$

ABBREVIATIONS USED IN REMARKS
   TC - TEMPERATURE IN CELSIUS
  WCI - WIND CHILL INDEX
   HX - HEAT INDEX
  VSB - VISIBILITY



USA.gov is the U.S. government's official web portal to all federal, state and local government web resources and services.